Main page
METAR-TAF:

METAR-TAF

Airports :

Iranshahr, Iran

latitude: 27-12N, longitude: 060-42E, elevation: 591 m

Current weather observation

The report was made 1 hour and 50 minutes ago, at 00:00 UTC
Wind 12 kt from the Southwest
Temperature 14°C
Humidity 58%
Pressure 1016 hPa
Visibility: 6000 m
Few clouds at a height of 3500 ft, Cumulonimbus.
Broken clouds at a height of 4000 ft, Towering cumulus.

METAR: OIZI 200000Z 23012KT 6000 FEW035CB BKN040TCU 14/06 Q1016

Time: 05:20 (01:50 UTC)


TAF: missing

Weather observations and forecasts of more than 4000 airports (METAR and TAF reports).

The available stations are represented by yellow and red dots on the map.

Hover mouse over dot to see the name of the station.

Then click to see weather observations and forecasts.

To change the map : click on the green buttons with a black cross to zoom in, on the green button with a dash to zoom out, or on the green arrows for adjacent maps.


METAR-TAF: